West Essex Park Conservancy

Temperature/Humidity/Waterlevel monitor

09-26 18:55  Fd   Fr   %    Z  mov    seq 
09-02 06:31:52,   34,  0, 1497.2 174  54877
09-02 06:10:19,   34, 11, 63.6 174  54877
09-02 05:50:12,   34,  0, 675.2 175  22109
09-02 05:28:49,   34, 11, 60.4 174  54877
09-02 05:08:41,   34,  0, 1359.5 174  30301
09-02 04:47:13,   34, 35, 58.4 175  22109
09-02 04:26:44,   34, 23, 57.6 175  22109
09-02 04:06:16,   34, 11, 54.7 174  54877
09-02 03:46:05,   34,  0, 873.8 175  22109
09-02 03:25:01,   34,  0, 137.6 176  13917
09-02 03:03:59,   34,  0, 137.8 176  38493
09-02 02:42:56,   34,  0, 956.5 174  30301
09-02 02:21:33,   34, 23, 136.3 176  13917
09-02 02:01:04,   34, 11, 260.8 175  22109
09-02 01:40:57,   34,  0, 750.0 176  38493
09-02 01:19:54,   34,  0, 56.1 175  22109
09-02 00:58:29,   34, 62, 750.0 176  13917
09-02 00:37:59,   34, 46, 465.9 176  13917
09-02 00:17:29,   34, 35, 56.5 174  54875
09-01 23:56:59,   34, 23, 1158.5 175  46680
09-01 23:36:30,   34, 11, 544.0 176  38486
09-01 23:16:25,   34,  0, 953.0 174  54870
09-01 22:53:57,   34, 46, 263.1 176  13909
09-01 22:33:25,   34, 35, 262.9 176  13898
09-01 22:12:55,   34, 23, 1362.4 176  38471
09-01 21:52:25,   34, 11, 262.9 175  22083
09-01 21:32:15,   34,  0, 877.4 176  13889
09-01 21:10:52,   34, 11, 1157.0 176  38459
09-01 20:50:44,   34,  0, 132.5 176  38450
09-01 20:29:42,   34,  0, 674.2 175  46600
09-01 20:08:19,   34, 74, 1155.6 177  63216
09-01 19:47:50,   34, 62, 1155.2 175  46815
09-01 19:27:21,   34, 46, 540.4 177   5848
09-01 19:06:51,   34, 35, 949.6 177   5846
09-01 18:46:20,   34, 23, 334.8 176  38609
09-01 18:25:52,   34, 11, 266.7 177  30417
09-01 18:05:44,   34,  0, 1153.3 177   5835
09-01 17:44:20,   34, 46, 1086.8 176  38601
09-01 17:23:49,   34, 34, 1087.7 177   5833
09-01 17:03:20,   34, 22, 126.8 177   5831

Go to the West Essex Park Conservancy birding log .